Location: Killam
(52.7910°N, 111.8608°W)
Time: 13:20:08
(UTC+00:00)

BlueWalker 3 - Pass Details

Date: 24 January 2026
Orbit: 450 x 461 km, 53.2° (Epoch: 11 February)

Event Time Altitude Azimuth Distance (km) Brightness Sun altitude
Rises 01:35:10 0° 216° (SW) 2,448 6.2 -14.6°
Reaches altitude 10° 01:37:30 10° 203° (SSW) 1,578 4.9 -14.9°
Maximum altitude 01:40:31 26° 145° (SE) 917 3.0 -15.4°
Enters shadow 01:41:18 24° 122° (ESE) 977 3.0 -15.5°
